{"data":{"norad_id":53920,"epoch":"2026-09-20T23:07:16.086432Z","epoch_age_seconds":46969,"freshness":"FRESH","line1":"1 53920U 22119AL  26263.96338063  .00000458  00000+0  26514-4 0  9999","line2":"2 53920  53.1583 145.6852 0001263  88.2849 271.8297 15.31705306221460","mean_motion":15.31705306,"eccentricity":0.0001263,"inclination_deg":53.1583,"raan_deg":145.6852,"arg_perigee_deg":88.2849,"mean_anomaly_deg":271.8297,"bstar":2.6514e-5,"rev_number":22146,"period_min":94.012862288799,"perigee_km":469.85916719458,"apogee_km":471.58918952824,"semimajor_km":6848.8611783614,"source":"CELESTRAK","updated_at":"2026-09-21T09:00:33.035201Z"}}